Location: Central Falls
(41.8900°N, 71.3929°W)
Time: 11:48:35
(UTC+00:00)

A-11 Canister half - Pass Details

Date: 06 December 2023
Orbit: 1526 x 1682 km, 47.3° (Epoch: 20 February)

Event Time Altitude Azimuth Distance (km) Brightness Sun altitude
Rises 08:23:16 0° 286° (WNW) 4,848 - -39.3°
Reaches altitude 10° 08:29:22 10° 258° (WSW) 3,816 - -38.1°
Maximum altitude 08:32:19 12° 240° (WSW) 3,655 - -37.6°
Drops below altitude 10° 08:35:15 10° 221° (SW) 3,771 - -37.0°
Exits shadow 08:40:52 - 194° (SSW) 4,638 11.4 -36.0°
Sets 08:41:14 0° 192° (SSW) 4,713 11.4 -35.9°
